Date String (YYYY-MM-DD hh:mm:ss) UTC,Instrument flags,absolute air pressure of the measurement (hPa),sample flow rate (lpm),inlet stack bypass flow (lpm),air temperature of the measurement (°C),ambient temperature measured by the external sensor (°C),aerosol sample conditioner tube jacket temperature (°C),OPC LED temperature (°C),internal box temperature (°C),relative humidity of the measurement (%),span deviation,mass concentration of particles derived from Lorenz-Mie calculation of OPC scattering (μg/m³),mass concentration of particles derived from Lorenz-Mie calculation of OPC scattering (μg/m³),mass concentration of particles derived from Lorenz-Mie calculation of OPC scattering (μg/m³)
DateTimeUTC,F1_M11,P_M11,Q1_M11,Q2_M11,T1_M11,T2_M11,T3_M11,T4_M11,T5_M11,U1_M11,ZSPAN_M11,X2_M11,X0_M11,X1_M11
2023-12-22 01:00:00,SystemResetWarning,0832.7,5.00,000.00,025.8,024.9,000.0,033.9,027.2,11.5,0000.0,0000.90,0002.78,0000.74
2023-12-22 01:01:00,SystemResetWarning,0832.9,5.00,000.00,025.8,024.9,000.0,033.9,027.2,11.5,0000.0,0000.90,0002.76,0000.73
2023-12-22 01:02:00,SystemResetWarning,0832.7,5.00,000.00,025.8,024.9,000.0,033.9,027.2,11.5,0000.0,0000.91,0002.78,0000.74
2023-12-22 01:03:00,SystemResetWarning,0832.7,4.99,000.00,025.8,024.9,000.0,034.0,027.3,11.5,0000.0,0000.90,0002.75,0000.74
2023-12-22 01:04:00,SystemResetWarning,0832.7,5.02,000.00,025.8,024.9,000.0,034.0,027.2,11.3,0000.0,0000.90,0002.76,0000.74
2023-12-22 01:05:00,SystemResetWarning,0832.7,5.00,000.00,025.8,024.9,000.0,034.0,027.3,11.4,0000.0,0000.90,0002.73,0000.73
2023-12-22 01:06:00,SystemResetWarning,0832.7,5.00,000.00,025.8,024.9,000.0,034.0,027.3,11.4,0000.0,0000.90,0002.72,0000.73
2023-12-22 01:07:00,SystemResetWarning,0832.7,4.99,000.00,025.8,024.9,000.0,034.0,027.3,11.3,0000.0,0000.91,0002.60,0000.74
2023-12-22 01:08:00,SystemResetWarning,0832.8,5.00,000.00,025.8,024.9,000.0,034.0,027.3,11.3,0000.0,0000.91,0002.26,0000.73
2023-12-22 01:09:00,SystemResetWarning,0832.8,5.02,000.00,025.9,024.9,000.0,034.0,027.3,11.3,0000.0,0000.93,0001.48,0000.74
2023-12-22 01:10:00,SystemResetWarning,0832.8,4.99,000.00,025.9,024.9,000.0,034.1,027.3,11.3,0000.0,0000.93,0001.54,0000.73
2023-12-22 01:11:00,SystemResetWarning,0832.8,4.98,000.00,025.9,024.9,000.0,034.1,027.3,11.3,0000.0,0000.95,0001.64,0000.74
2023-12-22 01:12:00,SystemResetWarning,0832.8,5.02,000.00,025.9,024.9,000.0,034.1,027.4,11.3,0000.0,0000.94,0001.69,0000.74
2023-12-22 01:13:00,SystemResetWarning,0832.7,5.00,000.00,025.9,025.0,000.0,034.1,027.4,11.3,0000.0,0000.93,0001.68,0000.73
2023-12-22 01:14:00,SystemResetWarning,0832.8,5.00,000.00,025.9,025.0,000.0,034.1,027.4,11.2,0000.0,0000.93,0001.67,0000.73
2023-12-22 01:15:00,SystemResetWarning,0832.8,4.99,000.00,025.9,025.0,000.0,034.1,027.4,11.2,0000.0,0000.92,0001.65,0000.73
2023-12-22 01:16:00,SystemResetWarning,0832.8,5.01,000.00,025.9,025.0,000.0,034.1,027.4,11.2,0000.0,0000.94,0001.73,0000.73
2023-12-22 01:17:00,SystemResetWarning,0832.8,5.00,000.00,025.9,025.0,000.0,034.1,027.4,11.2,0000.0,0000.92,0001.75,0000.73
2023-12-22 01:18:00,SystemResetWarning,0832.8,5.00,000.00,025.9,025.0,000.0,034.1,027.4,11.2,0000.0,0000.93,0001.78,0000.72
2023-12-22 01:19:00,SystemResetWarning,0832.8,5.00,000.00,025.9,025.0,000.0,034.1,027.4,11.2,0000.0,0000.92,0001.76,0000.73
2023-12-22 01:20:00,SystemResetWarning,0832.8,5.00,000.00,025.9,024.9,000.0,034.2,027.4,11.2,0000.0,0000.89,0001.55,0000.72
2023-12-22 01:21:00,SystemResetWarning,0832.8,5.00,000.00,025.9,025.0,000.0,034.2,027.4,11.2,0000.0,0000.91,0001.55,0000.73
2023-12-22 01:22:00,SystemResetWarning,0832.8,5.00,000.00,026.0,025.0,000.0,034.2,027.4,11.2,0000.0,0000.91,0001.47,0000.74
2023-12-22 01:23:00,SystemResetWarning,0832.8,5.00,000.00,026.0,025.0,000.0,034.2,027.4,11.1,0000.0,0000.92,0001.42,0000.75
2023-12-22 01:24:00,SystemResetWarning,0832.8,5.00,000.00,026.0,025.0,000.0,034.2,027.4,11.1,0000.0,0000.93,0001.44,0000.76
2023-12-22 01:25:00,SystemResetWarning,0832.8,5.00,000.00,026.0,025.0,000.0,034.2,027.4,11.1,0000.0,0000.94,0001.44,0000.76
2023-12-22 01:26:00,SystemResetWarning,0832.8,5.00,000.00,026.0,025.0,000.0,034.2,027.5,11.1,0000.0,0000.94,0001.43,0000.77
2023-12-22 01:27:00,SystemResetWarning,0833.1,5.01,000.00,026.0,025.0,000.0,034.2,027.5,11.0,0000.0,0000.92,0001.37,0000.78
2023-12-22 01:28:00,SystemResetWarning,0832.9,5.01,000.00,026.0,025.0,000.0,034.2,027.5,11.1,0000.0,0000.93,0001.34,0000.78
2023-12-22 01:29:00,SystemResetWarning,0833.2,5.01,000.00,026.0,025.0,000.0,034.2,027.5,11.0,0000.0,0000.95,0001.44,0000.79
2023-12-22 01:30:00,SystemResetWarning,0833.1,5.00,000.00,026.0,025.1,000.0,034.2,027.5,11.0,0000.0,0000.93,0001.43,0000.79
2023-12-22 01:31:00,SystemResetWarning,0833.2,4.99,000.00,026.0,025.1,000.0,034.3,027.5,11.0,0000.0,0000.94,0001.46,0000.79
2023-12-22 01:32:00,SystemResetWarning,0833.2,5.00,000.00,026.0,025.1,000.0,034.3,027.5,11.0,0000.0,0000.93,0001.45,0000.79
2023-12-22 01:33:00,SystemResetWarning,0833.4,5.00,000.00,026.0,025.1,000.0,034.3,027.5,11.0,0000.0,0000.93,0001.43,0000.79
2023-12-22 01:34:00,SystemResetWarning,0833.3,5.00,000.00,026.1,025.1,000.0,034.3,027.5,11.0,0000.0,0000.93,0001.68,0000.78
2023-12-22 01:35:00,SystemResetWarning,0833.2,5.00,000.00,026.1,025.1,000.0,034.3,027.5,11.0,0000.0,0000.94,0002.19,0000.78
2023-12-22 01:36:00,SystemResetWarning,0833.1,5.00,000.00,026.1,025.1,000.0,034.3,027.5,11.0,0000.0,0000.93,0002.29,0000.77
2023-12-22 01:37:00,SystemResetWarning,0833.2,5.01,000.00,026.1,025.1,000.0,034.3,027.5,11.0,0000.0,0000.92,0002.28,0000.76
2023-12-22 01:38:00,SystemResetWarning,0832.9,5.01,000.00,026.1,025.1,000.0,034.3,027.5,11.0,0000.0,0000.91,0002.26,0000.75
2023-12-22 01:39:00,SystemResetWarning,0832.9,4.98,000.00,026.1,025.1,000.0,034.3,027.5,11.0,0000.0,0000.90,0002.26,0000.75
2023-12-22 01:40:00,SystemResetWarning,0832.9,5.01,000.00,026.1,025.1,000.0,034.3,027.5,11.0,0000.0,0000.88,0002.15,0000.74
2023-12-22 01:41:00,SystemResetWarning,0832.9,5.01,000.00,026.1,025.1,000.0,034.3,027.5,11.0,0000.0,0000.88,0002.14,0000.75
2023-12-22 01:42:00,SystemResetWarning,0832.9,4.99,000.00,026.1,025.1,000.0,034.3,027.5,10.9,0000.0,0000.90,0002.17,0000.75
2023-12-22 01:43:00,SystemResetWarning,0833.0,4.99,000.00,026.1,025.1,000.0,034.3,027.5,11.0,0000.0,0000.88,0002.11,0000.74
2023-12-22 01:44:00,SystemResetWarning,0833.0,5.01,000.00,026.1,025.1,000.0,034.3,027.5,11.0,0000.0,0000.89,0002.13,0000.74
2023-12-22 01:45:00,SystemResetWarning,0833.0,5.00,000.00,026.1,025.1,000.0,034.3,027.5,11.0,0000.0,0000.85,0001.85,0000.74
2023-12-22 01:46:00,SystemResetWarning,0833.0,5.00,000.00,026.1,025.1,000.0,034.3,027.5,11.0,0000.0,0000.87,0001.37,0000.75
2023-12-22 01:47:00,SystemResetWarning,0833.0,5.00,000.00,026.1,025.1,000.0,034.4,027.5,11.0,0000.0,0000.90,0001.39,0000.76
2023-12-22 01:48:00,SystemResetWarning,0833.0,4.99,000.00,026.1,025.1,000.0,034.3,027.5,11.0,0000.0,0000.92,0001.45,0000.76
2023-12-22 01:49:00,SystemResetWarning,0832.9,5.00,000.00,026.1,025.1,000.0,034.4,027.5,11.0,0000.0,0000.93,0001.54,0000.77
2023-12-22 01:50:00,SystemResetWarning,0832.9,5.02,000.00,026.1,025.1,000.0,034.4,027.5,11.0,0000.0,0000.92,0001.48,0000.77
2023-12-22 01:51:00,SystemResetWarning,0833.0,4.99,000.00,026.1,025.1,000.0,034.4,027.5,11.0,0000.0,0000.92,0001.48,0000.77
2023-12-22 01:52:00,SystemResetWarning,0833.0,4.99,000.00,026.1,025.1,000.0,034.4,027.5,10.9,0000.0,0000.92,0001.48,0000.77
2023-12-22 01:53:00,SystemResetWarning,0832.9,5.03,000.00,026.1,025.1,000.0,034.4,027.5,10.9,0000.0,0000.92,0001.49,0000.77
2023-12-22 01:54:00,SystemResetWarning,0833.3,4.98,000.00,026.1,025.1,000.0,034.4,027.5,10.9,0000.0,0000.91,0001.46,0000.78
2023-12-22 01:55:00,SystemResetWarning,0833.2,5.00,000.00,026.1,025.1,000.0,034.4,027.5,11.0,0000.0,0000.92,0001.51,0000.78
2023-12-22 01:56:00,SystemResetWarning,0833.4,5.02,000.00,026.1,025.1,000.0,034.4,027.5,11.0,0000.0,0000.91,0001.52,0000.77
2023-12-22 01:57:00,SystemResetWarning,0833.1,4.99,000.00,026.1,025.1,000.0,034.4,027.5,11.1,0000.0,0000.88,0001.44,0000.76
2023-12-22 01:58:00,SystemResetWarning,0833.0,4.99,000.00,026.1,025.0,000.0,034.4,027.5,11.1,0000.0,0000.85,0001.31,0000.75
2023-12-22 01:59:00,SystemResetWarning,0833.0,5.00,000.00,026.1,025.0,000.0,034.4,027.5,11.0,0000.0,0000.84,0001.26,0000.75
